Погода в Бернбурге

Германия     51°47′29″N   11°44′24″E
темп.,
°C
ветер,
м/с
пор.,
м/с
влажн.,
%
обл.,
%
осадки,
мм/ч
давл.,
гПа
погр.,
м
3 августа, вт
вт323:00+14зсз23735 0.0 101434
02:00+13з227481 0.0 101515
05:00+14сз1173100 0.0 101422
08:00+15ссв117264 0.0 1015234
11:00+20ююв1158100 0.0 10141038
14:00+22ююз1345100 0.1 10131877
17:00+22ю2343100 0.0 10121919
20:00+17юз3474100 0.8 101275
4 августа, ср
ср423:00+16зюз227947 0.8 101333
02:00+13юз338424 0.8 101354
05:00+13ююз228880 0.0 101219
08:00+16юз128097 0.0 1013149
11:00+19з126694 0.0 1013814
14:00+22зюз115333 0.9 10121449
17:00+22з225425 2.3 10121201
20:00+19всв127028 4.1 101228
5 августа, чт
чт523:00+16вюв0180100 0.4 101211
02:00+15зсз118799 0.6 101111
05:00+14з1192100 0.1 101111
08:00+16з1183100 0.1 1011188
11:00+20ююв2264100 0.1 1010720
14:00+23ю2151100 0.2 10091411
17:00+21св2259100 2.6 1008554
20:00+19всв2273100 3.1 100834
6 августа, пт
пт623:00+16в229062 1.3 100848
02:00+15юв229155 2.5 100740
05:00+14ю22897 0.1 100723
08:00+17ююз468167 0.1 1007269
11:00+21ююз55655 0.0 1007946
14:00+24юз564996 0.0 10071693
17:00+24юз555132 0.0 10061639
20:00+20юз47695 0.1 1007261
7 августа, сб
сб723:00+17юз36840 0.0 100897
02:00+16юз36865 0.0 1008107
05:00+14зюз239033 0.0 100954
08:00+17юз2276100 0.0 1009175
11:00+22ю3359100 0.0 10081029
14:00+24ююз4548100 0.0 10071821
17:00+23зюз3449100 0.0 10071171
20:00+19юз3478100 0.1 1008149